TimeEST,TemperatureF,Dew PointF,Humidity,Sea Level PressureIn,VisibilityMPH,Wind Direction,Wind SpeedMPH,Gust SpeedMPH,PrecipitationIn,Events,Conditions,WindDirDegrees,DateUTC
12:52 AM,59.0,57.0,93,30.04,0.2,Calm,Calm,-,N/A,Fog,Fog,0,2014-02-05 05:52:00
1:52 AM,57.9,55.9,93,30.04,0.5,Calm,Calm,-,N/A,Fog,Fog,0,2014-02-05 06:52:00
2:00 AM,57.9,55.9,93,30.04,1.0,Calm,Calm,-,N/A,,Overcast,0,2014-02-05 07:00:00
2:09 AM,57.0,55.9,96,30.04,2.0,ESE,3.5,-,N/A,,Overcast,110,2014-02-05 07:09:00
2:39 AM,59.0,57.0,93,30.03,2.5,Calm,Calm,-,N/A,,Overcast,0,2014-02-05 07:39:00
2:52 AM,59.0,57.0,93,30.03,2.5,Calm,Calm,-,N/A,,Overcast,0,2014-02-05 07:52:00
3:09 AM,60.1,57.0,90,30.03,3.0,Calm,Calm,-,N/A,,Overcast,0,2014-02-05 08:09:00
3:20 AM,63.0,60.1,90,30.02,2.5,SSE,6.9,-,N/A,,Overcast,160,2014-02-05 08:20:00
3:28 AM,64.9,62.1,90,30.02,3.0,South,8.1,-,N/A,,Overcast,170,2014-02-05 08:28:00
3:52 AM,68.0,66.0,93,30.02,10.0,SSW,8.1,-,N/A,,Overcast,200,2014-02-05 08:52:00
4:52 AM,69.1,64.9,87,30.03,10.0,SSW,6.9,-,N/A,,Overcast,200,2014-02-05 09:52:00
5:52 AM,69.1,66.0,90,30.02,8.0,South,9.2,-,N/A,,Mostly Cloudy,180,2014-02-05 10:52:00
6:52 AM,70.0,66.0,87,30.01,8.0,South,11.5,-,N/A,,Mostly Cloudy,180,2014-02-05 11:52:00
7:52 AM,70.0,66.0,87,30.03,10.0,SSW,9.2,-,N/A,,Mostly Cloudy,210,2014-02-05 12:52:00
8:52 AM,73.0,66.9,81,30.03,10.0,SSW,15.0,-,N/A,,Mostly Cloudy,200,2014-02-05 13:52:00
9:44 AM,75.9,68.0,76,30.02,10.0,SSW,15.0,-,N/A,,Mostly Cloudy,210,2014-02-05 14:44:00
9:52 AM,77.0,68.0,74,30.01,10.0,SSW,13.8,-,N/A,,Mostly Cloudy,210,2014-02-05 14:52:00
10:52 AM,75.9,66.9,74,30.03,10.0,SW,11.5,-,N/A,,Overcast,230,2014-02-05 15:52:00
11:52 AM,77.0,66.9,71,30.01,10.0,SW,12.7,20.7,N/A,,Overcast,230,2014-02-05 16:52:00
12:24 PM,75.0,66.0,73,30.00,7.0,WSW,11.5,-,0.00,Rain,Light Rain,240,2014-02-05 17:24:00
12:39 PM,73.0,66.9,81,30.01,7.0,West,11.5,20.7,0.00,Thunderstorm,Overcast,270,2014-02-05 17:39:00
12:41 PM,72.0,66.9,84,30.01,2.0,West,10.4,20.7,0.00,Rain-Thunderstorm,Rain,280,2014-02-05 17:41:00
12:52 PM,69.1,64.9,87,30.01,2.0,West,9.2,17.3,N/A,Rain-Thunderstorm,Thunderstorms and Rain,280,2014-02-05 17:52:00
1:23 PM,69.1,66.0,90,29.98,4.0,WSW,6.9,-,N/A,Rain,Light Rain,240,2014-02-05 18:23:00
1:52 PM,70.0,66.9,90,29.96,7.0,SW,6.9,-,N/A,,Mostly Cloudy,220,2014-02-05 18:52:00
2:52 PM,73.0,68.0,84,29.96,10.0,SW,9.2,-,0.00,,Mostly Cloudy,230,2014-02-05 19:52:00
3:52 PM,73.9,66.9,79,29.96,10.0,SW,9.2,-,N/A,,Mostly Cloudy,230,2014-02-05 20:52:00
4:52 PM,75.9,66.9,74,29.95,10.0,SW,8.1,-,N/A,,Mostly Cloudy,230,2014-02-05 21:52:00
5:52 PM,73.9,66.9,79,29.97,10.0,SW,5.8,-,N/A,,Mostly Cloudy,230,2014-02-05 22:52:00
6:52 PM,71.1,66.0,84,29.99,10.0,West,3.5,-,N/A,,Mostly Cloudy,260,2014-02-05 23:52:00
7:19 PM,71.1,66.9,87,30.00,2.5,West,8.1,-,0.00,Rain,Heavy Rain,260,2014-02-06 00:19:00
7:27 PM,70.0,66.9,90,30.00,1.8,SW,8.1,-,0.00,Rain,Light Rain,230,2014-02-06 00:27:00
7:30 PM,70.0,66.9,90,30.00,3.0,SW,6.9,-,0.00,Rain,Light Rain,230,2014-02-06 00:30:00
7:37 PM,71.1,66.9,87,30.00,10.0,WSW,5.8,-,0.00,,Overcast,240,2014-02-06 00:37:00
7:52 PM,71.1,66.9,87,30.00,10.0,SW,5.8,-,0.00,,Overcast,230,2014-02-06 00:52:00
8:52 PM,70.0,66.0,87,30.01,10.0,West,3.5,-,0.05,,Scattered Clouds,270,2014-02-06 01:52:00
9:52 PM,66.9,59.0,76,30.04,10.0,NNW,5.8,-,0.02,,Overcast,330,2014-02-06 02:52:00
10:52 PM,64.0,50.0,60,30.07,10.0,Variable,3.5,-,N/A,,Mostly Cloudy,0,2014-02-06 03:52:00
11:52 PM,62.1,48.9,62,30.07,10.0,Variable,4.6,-,N/A,,Overcast,0,2014-02-06 04:52:00